N7LK Weather Reports


time (UTC)temp
F
wind
direction
speed
knots
gust
knots
rain 1hr
in
rain 24hr
in
rain mn
in
humidity
%
barometer
mb
20260906064327 88 302 0.0 0.0 0.00 0.00 0.00 40 1009.2
20260906063334 89 302 0.0 0.0 0.00 0.00 0.00 40 1009.2
20260906062343 89 302 0.0 0.0 0.00 0.00 0.00 38 1009.1
20260906061329 89 289 0.0 0.0 0.00 0.00 0.00 37 1009.2
20260906060336 89 290 0.0 0.0 0.00 0.00 0.00 37 1009.2
20260906055342 90 290 0.0 0.0 0.00 0.00 0.00 37 1009.3
20260906054334 90 290 0.0 0.0 0.00 0.00 0.00 35 1009.3
20260906053341 90 290 0.0 0.0 0.00 0.00 0.00 36 1009.3
20260906052328 90 18 0.0 0.0 0.00 0.00 0.00 36 1009.4
20260906051335 90 18 0.0 0.0 0.00 0.00 0.00 35 1009.4
20260906050326 90 18 0.0 0.0 0.00 0.00 0.00 34 1009.5
20260906045333 90 18 0.0 0.0 0.00 0.00 0.00 35 1009.4
20260906044400 90 346 0.0 0.0 0.00 0.00 0.00 35 1009.4
20260906043327 91 319 0.0 0.0 0.00 0.00 0.00 35 1009.3
20260906042400 91 338 0.0 0.0 0.00 0.00 0.00 34 1009.3
20260906041327 92 339 0.0 0.0 0.00 0.00 0.00 33 1009.3
20260906040332 92 338 0.0 0.0 0.00 0.00 0.00 33 1009.4
20260906035338 93 338 0.0 0.0 0.00 0.00 0.00 32 1009.3
20260906034330 93 339 0.0 0.0 0.00 0.00 0.00 31 1009.2
20260906033337 93 339 0.0 0.0 0.00 0.00 0.00 31 1009.1
20260906032343 94 309 0.0 0.0 0.00 0.00 0.00 31 1009.0
20260906031351 94 336 0.0 0.9 0.00 0.00 0.00 30 1008.9
20260906030341 94 344 0.9 2.6 0.00 0.00 0.00 30 1008.9
20260906025328 94 308 0.9 3.5 0.00 0.00 0.00 29 1008.8
20260906024335 95 290 0.9 7.0 0.00 0.00 0.00 29 1008.8
20260906023342 95 296 1.7 3.5 0.00 0.00 0.00 29 1008.7
20260906022333 95 323 1.7 5.2 0.00 0.00 0.00 28 1008.6
20260906021340 96 311 3.5 5.2 0.00 0.00 0.00 28 1008.6
20260906020328 96 336 1.7 7.8 0.00 0.00 0.00 28 1008.6
20260906015333 96 300 2.6 7.0 0.00 0.00 0.00 27 1008.6
20260906014344 97 309 2.6 7.8 0.00 0.00 0.00 27 1008.6
20260906013330 97 304 2.6 8.7 0.00 0.00 0.00 27 1008.6
20260906012339 97 315 5.2 8.7 0.00 0.00 0.00 26 1008.7
20260906011326 98 304 2.6 7.8 0.00 0.00 0.00 26 1008.7
20260906010338 98 327 4.3 9.6 0.00 0.00 0.00 25 1008.8
20260906005403 98 283 1.7 7.0 0.00 0.00 0.00 25 1008.7
20260906004328 99 252 2.6 7.0 0.00 0.00 0.00 25 1008.7
20260906003335 99 270 1.7 6.1 0.00 0.00 0.00 25 1008.7
20260906002327 99 298 4.3 7.8 0.00 0.00 0.00 25 1008.7
20260906001333 99 256 1.7 9.6 0.00 0.00 0.00 25 1008.6
20260906000341 99 277 3.5 7.8 0.00 0.00 0.00 24 1008.6
20260905235327 100 257 4.3 8.7 0.00 0.00 0.00 24 1008.6
20260905234339 101 308 2.6 8.7 0.00 0.00 0.00 23 1008.6
20260905233406 101 327 4.3 11.3 0.00 0.00 0.00 24 1008.7
20260905232332 101 285 5.2 10.4 0.00 0.00 0.00 24 1008.7
20260905231338 102 261 5.2 12.2 0.00 0.00 0.00 23 1008.7
20260905230327 102 296 4.3 14.8 0.00 0.00 0.00 23 1008.7
20260905225332 102 340 3.5 10.4 0.00 0.00 0.00 24 1008.8
20260905224340 101 11 4.3 7.8 0.00 0.00 0.00 24 1008.7
20260905223328 101 355 3.5 9.6 0.00 0.00 0.00 24 1008.9
20260905222339 101 292 3.5 8.7 0.00 0.00 0.00 25 1008.9
20260905221346 101 277 5.2 14.8 0.00 0.00 0.00 25 1008.9
20260905220353 102 268 1.7 5.2 0.00 0.00 0.00 24 1009.1
20260905215339 102 225 4.3 9.6 0.00 0.00 0.00 25 1009.3
20260905214331 102 282 3.5 8.7 0.00 0.00 0.00 26 1009.4
20260905213337 102 279 2.6 7.8 0.00 0.00 0.00 26 1009.6
20260905212344 102 229 5.2 11.3 0.00 0.00 0.00 26 1009.6
20260905211351 103 305 2.6 8.7 0.00 0.00 0.00 26 1009.7
20260905210337 103 234 0.9 7.8 0.00 0.00 0.00 26 1009.9
20260905205328 102 312 3.5 8.7 0.00 0.00 0.00 26 1010.0
20260905204335 103 250 4.3 7.8 0.00 0.00 0.00 26 1010.1
20260905203343 103 331 0.9 2.6 0.00 0.00 0.00 26 1010.2
20260905202331 102 49 0.9 4.3 0.00 0.00 0.00 27 1010.5
20260905201342 101 318 1.7 5.2 0.00 0.00 0.00 27 1010.5
20260905200329 101 238 1.7 7.0 0.00 0.00 0.00 27 1010.7
20260905195335 101 146 2.6 5.2 0.00 0.00 0.00 28 1010.7
20260905194403 100 55 1.7 3.5 0.00 0.00 0.00 29 1010.8
20260905193353 99 267 1.7 7.8 0.00 0.00 0.00 28 1010.9
20260905192340 99 238 1.7 5.2 0.00 0.00 0.00 29 1011.1
20260905191327 99 350 0.9 5.2 0.00 0.00 0.00 28 1011.3
20260905190333 99 202 3.5 7.0 0.00 0.00 0.00 29 1011.5
20260905185400 99 264 0.9 7.8 0.00 0.00 0.00 29 1011.7
20260905184329 98 139 0.9 3.5 0.00 0.00 0.00 30 1011.9
20260905183335 97 157 1.7 6.1 0.00 0.00 0.00 31 1012.0
20260905182342 96 150 3.5 6.1 0.00 0.00 0.00 31 1012.0
20260905181348 96 287 0.9 6.1 0.00 0.00 0.00 30 1012.1
20260905180338 96 154 2.6 5.2 0.00 0.00 0.00 30 1012.1
20260905175344 96 189 1.7 4.3 0.00 0.00 0.00 31 1012.2
20260905174332 95 163 1.7 5.2 0.00 0.00 0.00 31 1012.1
20260905173339 95 221 1.7 3.5 0.00 0.00 0.00 31 1012.2
20260905172350 95 194 0.9 4.3 0.00 0.00 0.00 32 1012.1
20260905171334 95 35 1.7 2.6 0.00 0.00 0.00 31 1012.1
20260905170341 95 42 0.9 3.5 0.00 0.00 0.00 31 1012.1
20260905165328 94 5 0.9 2.6 0.00 0.00 0.00 32 1012.0
20260905164339 94 53 1.7 3.5 0.00 0.00 0.00 32 1012.0
20260905163345 94 24 0.0 1.7 0.00 0.00 0.00 33 1012.0
20260905162332 93 80 0.0 2.6 0.00 0.00 0.00 33 1012.1
20260905161340 93 150 0.0 1.7 0.00 0.00 0.00 35 1012.0
20260905160350 93 53 0.0 1.7 0.00 0.00 0.00 35 1011.9
20260905155356 92 344 0.9 1.7 0.00 0.00 0.00 35 1011.8
20260905154402 92 42 0.9 1.7 0.00 0.00 0.00 35 1011.9
20260905153349 92 68 0.0 0.0 0.00 0.00 0.00 35 1011.9
20260905152335 91 99 0.0 1.7 0.00 0.00 0.00 36 1011.8
20260905151326 90 42 0.9 1.7 0.00 0.00 0.00 38 1011.6
20260905150353 90 330 0.0 0.0 0.00 0.00 0.00 39 1011.5
20260905145337 89 329 0.0 0.9 0.00 0.00 0.00 40 1011.5
20260905144344 89 319 0.0 0.9 0.00 0.00 0.00 40 1011.6
20260905143335 88 319 0.0 0.0 0.00 0.00 0.00 41 1011.5
20260905142341 86 319 0.0 0.0 0.00 0.00 0.00 45 1011.3
20260905141328 85 319 0.0 0.0 0.00 0.00 0.00 47 1011.3
20260905140337 84 319 0.0 0.0 0.00 0.00 0.00 50 1011.2
20260905135345 83 319 0.0 0.0 0.00 0.00 0.00 49 1011.2
20260905134331 83 319 0.0 0.0 0.00 0.00 0.00 48 1011.0
20260905133338 83 319 0.0 0.0 0.00 0.00 0.00 50 1010.9
20260905132405 83 319 0.0 0.0 0.00 0.00 0.00 49 1010.8
20260905131356 83 319 0.0 0.0 0.00 0.00 0.00 48 1010.7
20260905130340 83 319 0.0 0.0 0.00 0.00 0.00 46 1010.6
20260905125347 83 319 0.0 0.0 0.00 0.00 0.00 46 1010.4
20260905124333 83 319 0.0 0.0 0.00 0.00 0.00 46 1010.4
20260905123339 83 319 0.0 0.0 0.00 0.00 0.00 45 1010.4
20260905122330 83 319 0.0 0.9 0.00 0.00 0.00 45 1010.2
20260905121338 84 319 0.0 0.9 0.00 0.00 0.00 45 1010.2
20260905120346 84 319 0.0 0.0 0.00 0.00 0.00 44 1010.1
20260905115334 85 319 0.0 0.0 0.00 0.00 0.00 43 1010.1
20260905114341 85 319 0.0 0.0 0.00 0.00 0.00 42 1010.1
20260905113327 85 319 0.0 0.9 0.00 0.00 0.00 42 1010.1
20260905112354 86 315 0.0 0.0 0.00 0.00 0.00 41 1010.1
20260905111341 86 315 0.0 0.0 0.00 0.00 0.00 41 1010.0
20260905110333 87 315 0.0 0.0 0.00 0.00 0.00 39 1010.0
20260905105339 87 317 0.0 0.9 0.00 0.00 0.00 39 1009.9
20260905104327 88 287 0.0 0.9 0.00 0.00 0.00 38 1009.9
20260905103334 88 345 0.0 0.9 0.00 0.00 0.00 38 1009.9
20260905102346 88 345 0.0 1.7 0.00 0.00 0.00 37 1009.8
20260905101353 89 345 0.9 2.6 0.00 0.00 0.00 37 1009.7
20260905100340 89 340 0.9 3.5 0.00 0.00 0.00 36 1009.7
20260905095326 89 254 1.7 3.5 0.00 0.00 0.00 36 1009.7
20260905094332 89 338 0.9 4.3 0.00 0.00 0.00 37 1009.7
20260905093341 89 321 2.6 5.2 0.00 0.00 0.00 37 1009.8
20260905092327 88 319 2.6 5.2 0.00 0.00 0.00 37 1009.7
20260905091334 88 324 1.7 5.2 0.00 0.00 0.00 37 1009.7
20260905090342 88 303 2.6 4.3 0.00 0.00 0.00 37 1009.7
20260905085350 88 348 0.9 3.5 0.00 0.00 0.00 38 1009.7
20260905084359 89 332 1.7 4.3 0.00 0.00 0.00 37 1009.7
20260905083343 89 286 0.0 2.6 0.00 0.00 0.00 37 1009.7
20260905082347 89 279 0.9 2.6 0.00 0.00 0.00 37 1009.7
20260905081333 89 288 1.7 3.5 0.00 0.00 0.00 36 1009.7
20260905080401 90 269 0.9 5.2 0.00 0.00 0.00 36 1009.7
20260905075333 90 304 0.0 0.9 0.00 0.00 0.00 36 1009.7
20260905074340 90 304 0.0 0.9 0.00 0.00 0.00 35 1009.7
20260905073328 91 304 0.0 0.9 0.00 0.00 0.00 34 1009.7
20260905072334 91 286 0.0 2.6 0.00 0.00 0.00 34 1009.7
20260905071344 91 284 0.9 1.7 0.00 0.00 0.00 33 1009.6
20260905070332 92 297 0.0 0.0 0.00 0.00 0.00 32 1009.6
20260905065339 92 300 0.0 0.9 0.00 0.00 0.00 32 1009.6